PDT,Max TemperatureF,Mean TemperatureF,Min TemperatureF,Max Dew PointF,MeanDew PointF,Min DewpointF,Max Humidity, Mean Humidity, Min Humidity, Max Sea Level PressureIn, Mean Sea Level PressureIn, Min Sea Level PressureIn, Max VisibilityMiles, Mean VisibilityMiles, Min VisibilityMiles, Max Wind SpeedMPH, Mean Wind SpeedMPH, Max Gust SpeedMPH,PrecipitationIn, CloudCover, Events, WindDirDegrees
2012-10-1,95,81,66,62,58,47,87,54,21,29.92,29.86,29.80,10,10,8,7,1,,0.00,0,,275
2012-10-2,93,81,68,63,58,48,73,48,22,29.85,29.81,29.78,10,10,8,9,1,14,0.00,0,,90
2012-10-3,83,73,63,65,62,58,87,69,50,30.02,29.95,29.86,10,7,2,8,1,12,0.00,3,,241
2012-10-4,76,69,62,59,58,55,90,70,50,30.10,30.05,30.03,10,10,7,8,1,14,0.00,3,,273
2012-10-5,77,70,62,60,59,56,90,70,50,30.06,30.01,29.93,10,8,3,9,1,14,0.00,3,,160
2012-10-6,79,71,62,61,59,57,93,73,52,29.96,29.92,29.86,10,9,5,9,1,14,0.00,1,,-1
2012-10-7,80,72,63,63,61,59,87,70,52,29.93,29.89,29.86,10,10,7,8,1,14,0.00,1,,125
2012-10-8,77,70,63,61,59,57,87,71,54,29.98,29.94,29.91,10,10,5,8,2,15,0.00,2,,242
2012-10-9,76,70,63,60,57,54,90,68,46,29.99,29.95,29.91,10,10,9,8,2,14,0.00,2,,98
2012-10-10,75,68,60,58,55,52,84,67,49,29.99,29.95,29.90,10,10,9,9,2,16,0.00,3,,236
2012-10-11,75,67,58,57,52,46,84,63,41,29.97,29.91,29.88,10,10,10,9,1,15,0.01,3,Rain,90
2012-10-12,72,64,55,54,51,49,83,65,47,30.15,30.08,29.98,10,10,10,12,2,16,0.00,2,,270
2012-10-13,77,67,57,59,54,50,84,63,41,30.18,30.11,30.04,10,10,10,8,1,13,0.00,0,,275
2012-10-14,86,73,59,59,53,42,90,56,21,30.06,29.99,29.92,10,10,10,0,0,,0.00,0,,-1
2012-10-15,99,99,99,58,48,36,99,99,99,29.93,29.89,29.84,10,10,10,5,1,,0.00,0,,280
2012-10-16,91,77,62,61,54,42,78,49,19,29.87,29.79,29.72,10,10,9,9,1,13,0.00,0,,290
2012-10-17,97,81,64,61,50,34,87,50,12,29.82,29.75,29.72,10,10,7,6,0,10,0.00,0,,-1
2012-10-18,81,74,67,65,61,49,93,67,41,30.07,30.00,29.83,10,10,10,9,2,16,0.00,4,,15
2012-10-19,79,72,64,64,62,61,93,76,58,30.01,29.94,29.88,10,10,6,9,1,15,0.00,3,,-1
2012-10-20,73,69,65,61,60,57,81,74,66,29.91,29.86,29.82,10,9,6,8,2,12,T,8,,135
2012-10-21,74,69,64,61,59,56,87,72,57,29.92,29.88,29.84,10,10,10,8,2,13,0.00,6,,130
2012-10-22,72,68,63,57,55,50,84,68,51,29.99,29.95,29.89,10,10,8,8,2,16,0.00,7,,280
2012-10-23,71,66,60,58,53,40,84,59,33,29.98,29.95,29.92,10,10,5,6,0,13,0.01,4,Rain,270
2012-10-24,75,66,57,51,43,27,77,49,20,30.04,30.00,29.96,10,10,10,13,3,22,0.00,0,,319
2012-10-25,85,74,62,50,36,31,37,27,16,30.05,29.99,29.90,10,10,10,10,3,21,0.00,0,,315
2012-10-26,86,72,58,46,33,22,57,34,10,30.02,29.95,29.89,10,10,10,5,0,8,0.00,0,,-1
2012-10-27,91,75,59,45,29,12,42,24,6,29.91,29.86,29.80,10,10,10,8,0,12,0.00,0,,275
2012-10-28,89,74,58,52,38,23,63,37,10,30.02,29.93,29.89,10,10,10,7,1,10,0.00,0,,125
2012-10-29,84,71,57,57,46,34,90,54,18,30.08,30.03,29.99,10,9,5,8,1,12,0.00,0,,283
2012-10-30,76,65,54,57,54,43,100,68,35,30.06,30.03,29.96,10,4,0,7,1,12,0.00,2,Fog,272
2012-10-31,71,64,57,56,54,53,93,73,53,30.06,30.01,29.96,10,6,2,7,0,12,0.00,5,,260